User: anonymous   Login
Location: Bílinka
(49.3579°N, 14.3767°E)
Time: 22:13:33
(UTC+00:00)
Language:

FENGYUN 1C DEB - Orbit

View from above orbital plane
View from above orbital plane
View from above satellite
View from above satellite

Ground track
Ground track

The orbit data is extracted from the following two-line orbital elements,

1 31727U 99025CEA 24050.76052597  .00007078  00000-0  30891-2 0  9992
2 31727  98.8623 144.2147 0043472 117.6264  34.3318 14.23671713622038
Epoch (UTC): 19 February 2024 18:15:09
Eccentricity: 0.0043472
inclination: 98.8623°
perigee height: 782 km
apogee height: 844 km
right ascension of ascending node: 144.2147°
argument of perigee: 117.6264°
revolutions per day: 14.23671713
mean anomaly at epoch: 34.3318°
orbit number at epoch: 62203

The dashed part of the orbit path shows where the satellite is in the earth's shadow,  

DLR